When you browse on this site, cookies collect data to enhance your experience and personalize the content and advertising you see.
Visit our Privacy Policy to learn more. By continuing to use the site, you agree to this use of cookies and data.
  • In Hungary
  • List of Countries
  • For 7 days
  • Water Temperature
  • Weather Map
  • News
  • Weather Widgets
  • user-avatar
    Login

    Hourly Weather Sestri Levante

    Today, 17 November, Sunday

    Time Temperature Precipitation Wind Pressure Humidity
    00:00 +7°C° 5 mm 6 mps 753 mmHg 93%
    01:00 +4°C° 0 mm 6 mps 752 mmHg 93%
    02:00 +4°C° 2.4 mm 6 mps 751 mmHg 93%
    03:00 +4°C° 2.4 mm 6 mps 751 mmHg 92%
    04:00 +4°C° 2.4 mm 6 mps 750 mmHg 91%
    05:00 +5°C° 2 mm 5 mps 750 mmHg 92%
    06:00 +5°C° 2 mm 5 mps 749 mmHg 94%
    07:00 +5°C° 2 mm 4 mps 748 mmHg 95%
    08:00 +5°C° 2.9 mm 4 mps 748 mmHg 96%
    09:00 +5°C° 2.9 mm 4 mps 748 mmHg 96%
    10:00 +6°C° 2.9 mm 4 mps 748 mmHg 97%
    11:00 +6°C° 0.4 mm 4 mps 749 mmHg 97%
    12:00 +7°C° 0.4 mm 3 mps 749 mmHg 97%
    13:00 +7°C° 0.4 mm 3 mps 750 mmHg 96%
    14:00 +8°C° 0 mm 3 mps 750 mmHg 95%
    15:00 +7°C° 0 mm 4 mps 751 mmHg 94%
    16:00 +8°C° 0 mm 5 mps 751 mmHg 93%
    17:00 +8°C° 0.3 mm 5 mps 752 mmHg 93%
    18:00 +7°C° 0.3 mm 5 mps 753 mmHg 93%
    19:00 +7°C° 0.3 mm 6 mps 753 mmHg 92%
    20:00 +7°C° 0.8 mm 5 mps 753 mmHg 93%
    21:00 +7°C° 0.8 mm 5 mps 754 mmHg 93%
    22:00 +7°C° 0.8 mm 5 mps 754 mmHg 93%
    23:00 +7°C° 0.5 mm 4 mps 754 mmHg 93%

    Tomorrow, 18 November, Monday

    Time Temperature Precipitation Wind Pressure Humidity
    00:00 +7°C° 0.5 mm 4 mps 754 mmHg 92%
    01:00 +7°C° 0.5 mm 4 mps 755 mmHg 92%
    02:00 +8°C° 0.1 mm 3 mps 755 mmHg 92%
    03:00 +8°C° 0.1 mm 2 mps 755 mmHg 91%
    04:00 +9°C° 0.1 mm 1 mps 755 mmHg 91%
    05:00 +8°C° 0.1 mm 2 mps 755 mmHg 91%
    06:00 +8°C° 0.1 mm 2 mps 756 mmHg 91%
    07:00 +8°C° 0.1 mm 2 mps 756 mmHg 91%
    08:00 +9°C° 0.1 mm 2 mps 756 mmHg 92%
    09:00 +9°C° 0.1 mm 2 mps 757 mmHg 92%
    10:00 +10°C° 0.1 mm 2 mps 757 mmHg 92%
    11:00 +10°C° 0.1 mm 2 mps 757 mmHg 91%
    12:00 +11°C° 0.1 mm 1 mps 757 mmHg 90%
    13:00 +12°C° 0.1 mm 1 mps 757 mmHg 89%
    14:00 +10°C° 0.6 mm 2 mps 757 mmHg 91%
    15:00 +9°C° 0.6 mm 3 mps 756 mmHg 93%
    16:00 +8°C° 0.6 mm 4 mps 756 mmHg 94%
    17:00 +7°C° 3.5 mm 5 mps 756 mmHg 94%
    18:00 +7°C° 3.5 mm 6 mps 756 mmHg 94%
    19:00 +5°C° 3.5 mm 6 mps 755 mmHg 94%
    20:00 +5°C° 4.7 mm 6 mps 755 mmHg 95%
    21:00 +6°C° 4.7 mm 5 mps 755 mmHg 95%
    22:00 +6°C° 4.7 mm 5 mps 755 mmHg 95%
    23:00 +7°C° 2.3 mm 5 mps 755 mmHg 95%

    Day after tomorrow, 19 November, Tuesday

    Time Temperature Precipitation Wind Pressure Humidity
    00:00 +7°C° 2.3 mm 5 mps 755 mmHg 95%
    01:00 +7°C° 2.3 mm 5 mps 755 mmHg 95%
    02:00 +7°C° 1.4 mm 5 mps 755 mmHg 96%
    03:00 +8°C° 1.4 mm 5 mps 755 mmHg 96%
    04:00 +8°C° 1.4 mm 5 mps 755 mmHg 96%
    05:00 +8°C° 0.9 mm 4 mps 755 mmHg 96%
    06:00 +8°C° 0.9 mm 4 mps 755 mmHg 96%
    07:00 +8°C° 0.9 mm 4 mps 755 mmHg 97%
    08:00 +9°C° 0.4 mm 3 mps 756 mmHg 96%
    09:00 +9°C° 0.4 mm 3 mps 756 mmHg 96%
    10:00 +9°C° 0.4 mm 2 mps 757 mmHg 95%
    11:00 +10°C° 0 mm 2 mps 757 mmHg 93%
    12:00 +12°C° 0 mm 1 mps 757 mmHg 90%
    13:00 +12°C° 0 mm 1 mps 757 mmHg 88%
    14:00 +12°C° 0 mm 1 mps 757 mmHg 89%
    15:00 +11°C° 0 mm 1 mps 757 mmHg 90%
    16:00 +11°C° 0 mm 1 mps 758 mmHg 92%
    17:00 +10°C° 0 mm 1 mps 758 mmHg 92%
    18:00 +9°C° 0 mm 1 mps 758 mmHg 93%
    19:00 +9°C° 0 mm 1 mps 759 mmHg 93%
    20:00 +8°C° 0 mm 1 mps 759 mmHg 93%
    21:00 +7°C° 0 mm 2 mps 760 mmHg 92%
    22:00 +7°C° 0 mm 2 mps 760 mmHg 92%
    23:00 +7°C° 0 mm 2 mps 760 mmHg 91%

    20 November, Wednesday

    Time Temperature Precipitation Wind Pressure Humidity
    00:00 +7°C° 0 mm 2 mps 760 mmHg 91%
    01:00 +6°C° 0 mm 2 mps 761 mmHg 90%
    02:00 +6°C° 0 mm 2 mps 761 mmHg 89%
    03:00 +6°C° 0 mm 2 mps 761 mmHg 89%
    04:00 +6°C° 0 mm 2 mps 761 mmHg 88%
    05:00 +6°C° 0 mm 2 mps 761 mmHg 88%
    06:00 +6°C° 0 mm 2 mps 761 mmHg 88%
    07:00 +7°C° 0 mm 1 mps 761 mmHg 88%
    08:00 +8°C° 0 mm 1 mps 762 mmHg 88%
    09:00 +10°C° 0 mm 1 mps 762 mmHg 89%
    10:00 +11°C° 0 mm 1 mps 762 mmHg 89%
    11:00 +12°C° 0 mm 1 mps 762 mmHg 87%
    12:00 +12°C° 0 mm 1 mps 762 mmHg 85%
    13:00 +13°C° 0 mm 1 mps 762 mmHg 83%
    14:00 +12°C° 0 mm 1 mps 762 mmHg 86%
    15:00 +12°C° 0 mm 1 mps 762 mmHg 88%
    16:00 +10°C° 0 mm 0 mps 762 mmHg 90%
    17:00 +10°C° 0 mm 1 mps 762 mmHg 91%
    18:00 +10°C° 0 mm 1 mps 762 mmHg 91%
    19:00 +9°C° 0 mm 1 mps 763 mmHg 92%
    20:00 +9°C° 0 mm 1 mps 763 mmHg 90%
    21:00 +9°C° 0 mm 1 mps 763 mmHg 88%
    22:00 +9°C° 0 mm 1 mps 763 mmHg 85%
    23:00 +9°C° 0 mm 1 mps 763 mmHg 85%

    21 November, Thursday

    Time Temperature Precipitation Wind Pressure Humidity
    00:00 +8°C° 0 mm 2 mps 763 mmHg 85%
    01:00 +8°C° 0 mm 2 mps 763 mmHg 85%
    02:00 +8°C° 0 mm 2 mps 762 mmHg 85%
    03:00 +8°C° 0 mm 2 mps 762 mmHg 85%
    04:00 +8°C° 0 mm 2 mps 762 mmHg 85%
    05:00 +8°C° 0.1 mm 2 mps 761 mmHg 85%
    06:00 +8°C° 0.1 mm 2 mps 761 mmHg 85%
    07:00 +8°C° 0.1 mm 3 mps 761 mmHg 85%
    08:00 +9°C° 0.1 mm 3 mps 761 mmHg 85%
    09:00 +10°C° 0.1 mm 3 mps 762 mmHg 85%
    10:00 +10°C° 0.1 mm 3 mps 762 mmHg 85%
    11:00 +10°C° 0.1 mm 3 mps 762 mmHg 87%
    12:00 +11°C° 0.1 mm 3 mps 761 mmHg 89%
    13:00 +11°C° 0.1 mm 4 mps 761 mmHg 90%
    14:00 +11°C° 0.2 mm 3 mps 761 mmHg 90%
    15:00 +10°C° 0.2 mm 3 mps 761 mmHg 90%
    16:00 +10°C° 0.2 mm 3 mps 761 mmHg 91%
    17:00 +10°C° 1.1 mm 3 mps 761 mmHg 92%
    18:00 +10°C° 1.1 mm 3 mps 761 mmHg 94%
    19:00 +9°C° 1.1 mm 3 mps 761 mmHg 95%
    20:00 +10°C° 0.6 mm 3 mps 761 mmHg 95%
    21:00 +10°C° 0.6 mm 3 mps 761 mmHg 95%
    22:00 +10°C° 0.6 mm 3 mps 762 mmHg 96%
    23:00 +10°C° 0.7 mm 3 mps 761 mmHg 96%

    22 November, Friday

    Time Temperature Precipitation Wind Pressure Humidity
    00:00 +10°C° 0.7 mm 3 mps 761 mmHg 97%
    01:00 +10°C° 0.7 mm 3 mps 761 mmHg 97%
    02:00 +10°C° 0.6 mm 4 mps 761 mmHg 97%
    03:00 +10°C° 0.6 mm 4 mps 760 mmHg 97%
    04:00 +11°C° 0.6 mm 4 mps 760 mmHg 98%
    05:00 +11°C° 0.8 mm 4 mps 760 mmHg 97%
    06:00 +10°C° 0.8 mm 5 mps 760 mmHg 97%
    07:00 +10°C° 0.8 mm 5 mps 760 mmHg 97%
    08:00 +10°C° 1.2 mm 5 mps 760 mmHg 97%
    09:00 +10°C° 1.2 mm 6 mps 761 mmHg 97%
    10:00 +10°C° 1.2 mm 6 mps 761 mmHg 97%
    11:00 +11°C° 1.1 mm 6 mps 760 mmHg 97%
    12:00 +12°C° 1.1 mm 5 mps 760 mmHg 97%
    13:00 +12°C° 1.1 mm 5 mps 760 mmHg 97%
    14:00 +12°C° 0.5 mm 5 mps 760 mmHg 97%
    15:00 +12°C° 0.5 mm 5 mps 759 mmHg 97%
    16:00 +12°C° 0.5 mm 5 mps 759 mmHg 97%
    17:00 +12°C° 0.6 mm 5 mps 759 mmHg 97%
    18:00 +12°C° 0.6 mm 5 mps 759 mmHg 97%
    19:00 +12°C° 0.6 mm 5 mps 759 mmHg 97%
    20:00 +12°C° 0.8 mm 5 mps 759 mmHg 97%
    21:00 +12°C° 0.8 mm 5 mps 759 mmHg 97%
    22:00 +12°C° 0.8 mm 5 mps 759 mmHg 97%
    23:00 +12°C° 2.1 mm 5 mps 758 mmHg 97%
    Show more